User: anonymous   Login
Location: Unspecified
(0.0000°N, 0.0000°E)
Time: 20:13:27
(UTC+00:00)
Language:

Cosmos 1732 - Orbit

View from above orbital plane
View from above orbital plane
View from above satellite
View from above satellite

Ground track
Ground track

The orbit data is extracted from the following two-line orbital elements,

1 16593U 86015A   18021.66470777 +.00000005 +00000-0 +16290-3 0  9996
2 16593 073.6103 097.4916 0028330 144.8489 009.3312 12.41037663447136
Epoch (UTC): 21 January 2018 15:57:10
Eccentricity: 0.0028330
inclination: 73.6103°
perigee height: 1480 km
apogee height: 1524 km
right ascension of ascending node: 97.4916°
argument of perigee: 144.8489°
revolutions per day: 12.41037663
mean anomaly at epoch: 9.3312°
orbit number at epoch: 44713

The dashed part of the orbit path shows where the satellite is in the earth's shadow,  

DLR